Time,TemperatureF,DewpointF,PressureIn,WindDirection,WindDirectionDegrees,WindSpeedMPH,WindSpeedGustMPH,Humidity,HourlyPrecipIn,Conditions,Clouds,dailyrainin,SoftwareType,DateUTC
2013-02-19 00:12:00,49.6,40.0,30.26,SSW,213,0.0,-999.0,69,-99.99,,,0.00,weatherlink.com 1.10,2013-02-19 05:12:00,
2013-02-19 00:27:00,49.9,40.0,30.25,SW,224,0.0,-999.0,69,-99.99,,,0.00,weatherlink.com 1.10,2013-02-19 05:27:00,
2013-02-19 00:42:00,50.2,40.0,30.25,SW,226,0.0,-999.0,69,-99.99,,,0.00,weatherlink.com 1.10,2013-02-19 05:42:00,
2013-02-19 00:57:00,50.2,41.0,30.25,SW,230,4.0,-999.0,71,-99.99,,,0.00,weatherlink.com 1.10,2013-02-19 05:57:00,
2013-02-19 01:12:00,49.6,42.0,30.25,SW,229,0.0,-999.0,75,-99.99,,,0.00,weatherlink.com 1.10,2013-02-19 06:12:00,
2013-02-19 01:27:00,49.5,42.0,30.25,SW,229,0.0,-999.0,76,-99.99,,,0.00,weatherlink.com 1.10,2013-02-19 06:27:00,
2013-02-19 01:42:00,49.4,42.0,30.24,SW,229,0.0,-999.0,76,-99.99,,,0.00,weatherlink.com 1.10,2013-02-19 06:42:00,
2013-02-19 01:57:00,49.4,43.0,30.23,SW,229,0.0,-999.0,78,-99.99,,,0.00,weatherlink.com 1.10,2013-02-19 06:57:00,
2013-02-19 02:12:00,49.2,43.0,30.22,SW,229,0.0,-999.0,79,-99.99,,,0.00,weatherlink.com 1.10,2013-02-19 07:12:00,
2013-02-19 02:27:00,49.2,43.0,30.22,SW,229,0.0,-999.0,80,-99.99,,,0.00,weatherlink.com 1.10,2013-02-19 07:27:00,
2013-02-19 02:42:00,49.4,44.0,30.21,SW,229,0.0,-999.0,83,-99.99,,,0.00,weatherlink.com 1.10,2013-02-19 07:42:00,
2013-02-19 02:57:00,48.8,44.0,30.20,SW,229,0.0,-999.0,82,-99.99,,,0.00,weatherlink.com 1.10,2013-02-19 07:57:00,
2013-02-19 03:12:00,45.5,40.0,30.19,SW,229,0.0,-999.0,80,-99.99,,,0.00,weatherlink.com 1.10,2013-02-19 08:12:00,
2013-02-19 03:27:00,42.6,37.0,30.19,SW,229,0.0,-999.0,81,-99.99,,,0.00,weatherlink.com 1.10,2013-02-19 08:27:00,
2013-02-19 03:42:00,41.2,37.0,30.18,SW,229,0.0,-999.0,86,-99.99,,,0.00,weatherlink.com 1.10,2013-02-19 08:42:00,
2013-02-19 03:57:00,40.5,37.0,30.18,SW,229,0.0,-999.0,88,-99.99,,,0.00,weatherlink.com 1.10,2013-02-19 08:57:00,
2013-02-19 04:12:00,40.2,37.0,30.17,SW,229,0.0,-999.0,89,-99.99,,,0.00,weatherlink.com 1.10,2013-02-19 09:12:00,
2013-02-19 04:27:00,39.9,37.0,30.17,SW,229,0.0,-999.0,90,-99.99,,,0.00,weatherlink.com 1.10,2013-02-19 09:27:00,
2013-02-19 04:42:00,39.3,37.0,30.16,SW,229,0.0,-999.0,90,-99.99,,,0.00,weatherlink.com 1.10,2013-02-19 09:42:00,
2013-02-19 04:57:00,38.9,37.0,30.16,SW,229,0.0,-999.0,91,-99.99,,,0.00,weatherlink.com 1.10,2013-02-19 09:57:00,
2013-02-19 05:12:00,38.9,37.0,30.15,SW,229,0.0,-999.0,92,-99.99,,,0.00,weatherlink.com 1.10,2013-02-19 10:12:00,
2013-02-19 05:27:00,38.8,37.0,30.15,SW,229,0.0,-999.0,92,-99.99,,,0.00,weatherlink.com 1.10,2013-02-19 10:27:00,
2013-02-19 05:42:00,38.9,37.0,30.14,SW,229,0.0,-999.0,93,-99.99,,,0.00,weatherlink.com 1.10,2013-02-19 10:42:00,
2013-02-19 05:57:00,41.1,40.0,30.14,SW,229,0.0,-999.0,95,-99.99,,,0.00,weatherlink.com 1.10,2013-02-19 10:57:00,
2013-02-19 06:12:00,42.2,41.0,30.14,SW,229,0.0,-999.0,95,-99.99,,,0.00,weatherlink.com 1.10,2013-02-19 11:12:00,
2013-02-19 06:27:00,41.6,40.0,30.14,SW,229,0.0,-999.0,95,-99.99,,,0.00,weatherlink.com 1.10,2013-02-19 11:27:00,
2013-02-19 06:42:00,41.6,40.0,30.13,SW,229,0.0,-999.0,95,-99.99,,,0.00,weatherlink.com 1.10,2013-02-19 11:42:00,
2013-02-19 06:57:00,44.3,43.0,30.12,SW,229,0.0,-999.0,96,-99.99,,,0.00,weatherlink.com 1.10,2013-02-19 11:57:00,
2013-02-19 07:12:00,43.8,43.0,30.11,SW,229,0.0,-999.0,95,-99.99,,,0.00,weatherlink.com 1.10,2013-02-19 12:12:00,
2013-02-19 07:27:00,45.5,45.0,30.11,SW,216,0.0,-999.0,96,-99.99,,,0.00,weatherlink.com 1.10,2013-02-19 12:27:00,
2013-02-19 07:42:00,49.1,48.0,30.11,SE,138,0.0,-999.0,94,-99.99,,,0.00,weatherlink.com 1.10,2013-02-19 12:42:00,
2013-02-19 07:57:00,52.3,49.0,30.11,ESE,109,0.0,-999.0,88,-99.99,,,0.00,weatherlink.com 1.10,2013-02-19 12:57:00,
2013-02-19 08:12:00,54.4,48.0,30.10,SE,138,0.0,-999.0,80,-99.99,,,0.00,weatherlink.com 1.10,2013-02-19 13:12:00,
2013-02-19 08:27:00,55.9,48.0,30.11,SE,136,0.0,-999.0,75,-99.99,,,0.00,weatherlink.com 1.10,2013-02-19 13:27:00,
2013-02-19 08:42:00,57.3,48.0,30.11,SE,143,0.0,-999.0,72,-99.99,,,0.00,weatherlink.com 1.10,2013-02-19 13:42:00,
2013-02-19 08:57:00,57.6,49.0,30.10,SSE,157,0.0,-999.0,72,-99.99,,,0.00,weatherlink.com 1.10,2013-02-19 13:57:00,
2013-02-19 09:12:00,57.2,49.0,30.09,SE,138,6.0,-999.0,73,-99.99,,,0.00,weatherlink.com 1.10,2013-02-19 14:12:00,
2013-02-19 09:27:00,58.7,50.0,30.09,SSE,165,2.0,-999.0,74,-99.99,,,0.00,weatherlink.com 1.10,2013-02-19 14:27:00,
2013-02-19 09:42:00,58.4,52.0,30.09,SSW,206,0.0,-999.0,79,-99.99,,,0.00,weatherlink.com 1.10,2013-02-19 14:42:00,
2013-02-19 09:57:00,56.3,53.0,30.09,SSW,192,0.0,-999.0,87,-99.99,,,0.02,weatherlink.com 1.10,2013-02-19 14:57:00,
2013-02-19 10:12:00,56.7,53.0,30.08,SW,216,0.0,-999.0,87,-99.99,,,0.02,weatherlink.com 1.10,2013-02-19 15:12:00,
2013-02-19 10:27:00,57.2,53.0,30.08,SSW,203,0.0,-999.0,87,-99.99,,,0.02,weatherlink.com 1.10,2013-02-19 15:27:00,
2013-02-19 10:42:00,57.6,53.0,30.07,SSW,205,0.0,-999.0,85,-99.99,,,0.02,weatherlink.com 1.10,2013-02-19 15:42:00,
2013-02-19 10:57:00,58.3,53.0,30.06,SSE,167,0.0,-999.0,81,-99.99,,,0.02,weatherlink.com 1.10,2013-02-19 15:57:00,
2013-02-19 11:12:00,58.9,53.0,30.05,SSW,199,8.0,-999.0,81,-99.99,,,0.02,weatherlink.com 1.10,2013-02-19 16:12:00,
2013-02-19 11:27:00,59.2,53.0,30.05,SSW,202,1.0,-999.0,81,-99.99,,,0.02,weatherlink.com 1.10,2013-02-19 16:27:00,
2013-02-19 11:42:00,58.7,54.0,30.04,SSW,212,0.0,-999.0,83,-99.99,,,0.02,weatherlink.com 1.10,2013-02-19 16:42:00,
2013-02-19 11:57:00,58.6,54.0,30.02,SSW,192,2.0,-999.0,84,-99.99,,,0.02,weatherlink.com 1.10,2013-02-19 16:57:00,
2013-02-19 12:12:00,58.7,54.0,30.01,South,179,0.0,-999.0,84,-99.99,,,0.02,weatherlink.com 1.10,2013-02-19 17:12:00,
2013-02-19 12:27:00,58.4,54.0,29.99,South,189,0.0,-999.0,85,-99.99,,,0.02,weatherlink.com 1.10,2013-02-19 17:27:00,
2013-02-19 12:42:00,58.4,54.0,29.98,South,184,0.0,-999.0,86,-99.99,,,0.02,weatherlink.com 1.10,2013-02-19 17:42:00,
2013-02-19 12:57:00,58.4,54.0,29.97,SSW,202,0.0,-999.0,85,-99.99,,,0.02,weatherlink.com 1.10,2013-02-19 17:57:00,
2013-02-19 13:12:00,58.4,54.0,29.95,SW,217,4.0,-999.0,85,-99.99,,,0.02,weatherlink.com 1.10,2013-02-19 18:12:00,
2013-02-19 13:27:00,57.6,54.0,29.95,WSW,248,6.0,-999.0,87,-99.99,,,0.03,weatherlink.com 1.10,2013-02-19 18:27:00,
2013-02-19 13:42:00,56.0,54.0,29.95,SW,236,2.0,-999.0,92,-99.99,,,0.08,weatherlink.com 1.10,2013-02-19 18:42:00,
2013-02-19 13:57:00,55.0,54.0,29.95,WSW,237,13.0,-999.0,95,-99.99,,,0.12,weatherlink.com 1.10,2013-02-19 18:57:00,
2013-02-19 14:12:00,53.9,53.0,29.95,South,175,8.0,-999.0,95,-99.99,,,0.17,weatherlink.com 1.10,2013-02-19 19:12:00,
2013-02-19 14:27:00,53.3,52.0,29.94,SW,233,7.0,-999.0,96,-99.99,,,0.21,weatherlink.com 1.10,2013-02-19 19:27:00,
2013-02-19 14:42:00,53.6,53.0,29.92,South,181,0.0,-999.0,96,-99.99,,,0.21,weatherlink.com 1.10,2013-02-19 19:42:00,
2013-02-19 14:57:00,53.9,53.0,29.91,SSW,195,4.0,-999.0,97,-99.99,,,0.21,weatherlink.com 1.10,2013-02-19 19:57:00,
2013-02-19 15:12:00,54.1,53.0,29.89,SSW,196,0.0,-999.0,96,-99.99,,,0.21,weatherlink.com 1.10,2013-02-19 20:12:00,
2013-02-19 15:27:00,54.4,53.0,29.89,South,182,1.0,-999.0,94,-99.99,,,0.21,weatherlink.com 1.10,2013-02-19 20:27:00,
2013-02-19 15:42:00,55.0,53.0,29.88,SW,222,2.0,-999.0,92,-99.99,,,0.21,weatherlink.com 1.10,2013-02-19 20:42:00,
2013-02-19 15:57:00,55.6,53.0,29.87,South,189,0.0,-999.0,89,-99.99,,,0.21,weatherlink.com 1.10,2013-02-19 20:57:00,
2013-02-19 16:12:00,56.6,52.0,29.86,WSW,241,13.0,-999.0,85,-99.99,,,0.21,weatherlink.com 1.10,2013-02-19 21:12:00,
2013-02-19 16:27:00,57.0,52.0,29.86,SW,234,7.0,-999.0,82,-99.99,,,0.21,weatherlink.com 1.10,2013-02-19 21:27:00,
2013-02-19 16:42:00,56.9,-99.9,29.86,SW,236,6.0,-999.0,-999,-99.99,,,0.21,weatherlink.com 1.10,2013-02-19 21:42:00,
2013-02-19 16:57:00,56.6,52.0,29.85,WSW,250,10.0,-999.0,83,-99.99,,,0.21,weatherlink.com 1.10,2013-02-19 21:57:00,
2013-02-19 17:13:00,56.3,52.0,29.85,SW,217,7.0,-999.0,85,-99.99,,,0.21,weatherlink.com 1.10,2013-02-19 22:13:00,
2013-02-19 17:27:00,56.2,52.0,29.85,SW,217,10.0,-999.0,85,-99.99,,,0.21,weatherlink.com 1.10,2013-02-19 22:27:00,
2013-02-19 17:42:00,55.9,52.0,29.86,WSW,254,8.0,-999.0,85,-99.99,,,0.21,weatherlink.com 1.10,2013-02-19 22:42:00,
2013-02-19 17:57:00,55.7,52.0,29.86,WSW,247,9.0,-999.0,86,-99.99,,,0.21,weatherlink.com 1.10,2013-02-19 22:57:00,
2013-02-19 18:12:00,55.7,51.0,29.86,WSW,244,6.0,-999.0,85,-99.99,,,0.21,weatherlink.com 1.10,2013-02-19 23:12:00,
2013-02-19 18:27:00,55.7,51.0,29.86,West,261,16.0,-999.0,84,-99.99,,,0.22,weatherlink.com 1.10,2013-02-19 23:27:00,
2013-02-19 18:42:00,56.0,50.0,29.86,WNW,294,13.0,-999.0,81,-99.99,,,0.22,weatherlink.com 1.10,2013-02-19 23:42:00,
2013-02-19 18:57:00,55.9,51.0,29.86,WSW,247,14.0,-999.0,83,-99.99,,,0.22,weatherlink.com 1.10,2013-02-19 23:57:00,
2013-02-19 19:12:00,56.0,52.0,29.86,West,271,8.0,-999.0,87,-99.99,,,0.22,weatherlink.com 1.10,2013-02-20 00:12:00,
2013-02-19 19:27:00,55.6,53.0,29.86,WSW,253,9.0,-999.0,89,-99.99,,,0.22,weatherlink.com 1.10,2013-02-20 00:27:00,
2013-02-19 19:42:00,55.6,53.0,29.85,SW,232,9.0,-999.0,91,-99.99,,,0.22,weatherlink.com 1.10,2013-02-20 00:42:00,
2013-02-19 19:57:00,55.6,53.0,29.85,WSW,246,9.0,-999.0,92,-99.99,,,0.22,weatherlink.com 1.10,2013-02-20 00:57:00,
2013-02-19 20:12:00,55.3,53.0,29.86,WSW,241,10.0,-999.0,93,-99.99,,,0.22,weatherlink.com 1.10,2013-02-20 01:12:00,
2013-02-19 20:28:00,55.0,53.0,29.85,WNW,296,2.0,-999.0,94,-99.99,,,0.22,weatherlink.com 1.10,2013-02-20 01:28:00,
2013-02-19 20:42:00,55.0,53.0,29.85,WNW,291,0.0,-999.0,94,-99.99,,,0.22,weatherlink.com 1.10,2013-02-20 01:42:00,
2013-02-19 20:58:00,54.7,53.0,29.84,WNW,284,0.0,-999.0,94,-99.99,,,0.22,weatherlink.com 1.10,2013-02-20 01:58:00,
2013-02-19 21:12:00,54.4,53.0,29.84,WNW,288,0.0,-999.0,94,-99.99,,,0.22,weatherlink.com 1.10,2013-02-20 02:12:00,
2013-02-19 21:27:00,53.9,52.0,29.85,West,270,0.0,-999.0,94,-99.99,,,0.22,weatherlink.com 1.10,2013-02-20 02:27:00,
2013-02-19 21:42:00,53.1,52.0,29.85,WSW,241,4.0,-999.0,94,-99.99,,,0.22,weatherlink.com 1.10,2013-02-20 02:42:00,
2013-02-19 21:57:00,52.5,51.0,29.86,WSW,258,0.0,-999.0,95,-99.99,,,0.22,weatherlink.com 1.10,2013-02-20 02:57:00,
2013-02-19 22:12:00,52.6,51.0,29.86,WNW,285,0.0,-999.0,94,-99.99,,,0.22,weatherlink.com 1.10,2013-02-20 03:12:00,
2013-02-19 22:27:00,53.9,48.0,29.86,NNW,329,4.0,-999.0,79,-99.99,,,0.22,weatherlink.com 1.10,2013-02-20 03:27:00,
2013-02-19 22:42:00,54.7,47.0,29.87,NW,313,8.0,-999.0,76,-99.99,,,0.22,weatherlink.com 1.10,2013-02-20 03:42:00,
2013-02-19 22:57:00,53.6,45.0,29.87,NW,311,0.0,-999.0,73,-99.99,,,0.22,weatherlink.com 1.10,2013-02-20 03:57:00,
2013-02-19 23:13:00,53.1,45.0,29.88,WNW,301,0.0,-999.0,74,-99.99,,,0.22,weatherlink.com 1.10,2013-02-20 04:13:00,
2013-02-19 23:27:00,52.2,45.0,29.88,NW,309,0.0,-999.0,76,-99.99,,,0.22,weatherlink.com 1.10,2013-02-20 04:27:00,
2013-02-19 23:42:00,51.6,44.0,29.88,NW,308,0.0,-999.0,76,-99.99,,,0.22,weatherlink.com 1.10,2013-02-20 04:42:00,
2013-02-19 23:57:00,51.0,44.0,29.88,NW,315,0.0,-999.0,78,-99.99,,,0.22,weatherlink.com 1.10,2013-02-20 04:57:00,